{"data":{"norad_id":58185,"epoch":"2026-05-25T04:22:31.146816Z","epoch_age_seconds":69552,"freshness":"FRESH","line1":"1 58185U 23167L   26145.18230494  .00002792  00000+0  11094-3 0  9992","line2":"2 58185  43.0040  71.4041 0001469 267.5907  92.4776 15.27583582142685","mean_motion":15.27583582,"eccentricity":0.0001469,"inclination_deg":43.004,"raan_deg":71.4041,"arg_perigee_deg":267.5907,"mean_anomaly_deg":92.4776,"bstar":0.00011094,"rev_number":14268,"period_min":94.26652766945,"perigee_km":482.0304636021,"apogee_km":484.04627692589,"semimajor_km":6861.175370264,"source":"CELESTRAK","updated_at":"2026-05-25T13:38:18.570612Z"}}